Location: Tierz
(42.1336°N, 0.3549°W)
Time: 16:09:20
(UTC+00:00)

H-2A R/B (2) - Pass Details

Date: 29 October 2020
Orbit: 481 x 34361 km, 28.4° (Epoch: 24 November)

Event Time Altitude Azimuth Distance (km) Brightness Sun altitude
Rises 19:24:43 0° 263° (W) 21,826 10.6 -27.6°
Reaches altitude 10° 20:04:28 10° 262° (W) 11,774 8.7 -34.9°
Maximum altitude 20:30:14 36° 206° (SSW) 2,592 4.6 -39.4°
Enters shadow 20:30:42 36° 200° (SSW) 2,480 4.4 -39.5°
